Location: Campestrin
(46.4667°N, 11.7167°E)
Time: 04:14:17
(UTC+00:00)

Cosmos 2227 Rocket - Pass Details

Date: 18 April 2021
Orbit: 840 x 843 km, 71.0° (Epoch: 16 May)

Event Time Altitude Azimuth Distance (km) Brightness Sun altitude
Exits shadow 21:38:57 21° 244° (WSW) 1,802 3.9 -28.7°
Maximum altitude 21:42:19 43° 305° (NW) 1,174 3.2 -29.0°
Drops below altitude 10° 21:47:43 10° 16° (NNE) 2,471 5.2 -29.3°
Sets 21:50:18 0° 23° (NNE) 3,409 5.9 -29.5°
